Location: Bougoura
(13.1861°N, 5.0773°W)
Time: 01:33:45
(UTC+00:00)

Cosmos 1300 Rocket - Pass Details

Date: 18 September 2020
Orbit: 602 x 626 km, 82.5° (Epoch: 20 October)

Event Time Altitude Azimuth Distance (km) Brightness Sun altitude
Rises 19:44:07 0° 190° (S) 2,858 7.0 -21.5°
Reaches altitude 10° 19:46:20 10° 193° (SSW) 1,958 6.2 -22.0°
Maximum altitude 19:50:37 63° 274° (W) 684 3.9 -23.1°
Drops below altitude 10° 19:54:57 10° 356° (N) 1,975 6.3 -24.1°
Sets 19:57:12 0° 360° (N) 2,884 7.1 -24.7°
